Location: The Saddle
(36.8333°N, 80.3417°W)
Time: 09:31:59
(UTC-05:00)

S-56A Canister/Altair - Pass Details

Date: 16 December 2023
Orbit: 640 x 2488 km, 38.9° (Epoch: 25 February)

Event Time Altitude Azimuth Distance (km) Brightness Sun altitude
Rises 12:28:09 0° 285° (WNW) 3,415 10.7 29.8°
Reaches altitude 10° 12:30:54 10° 283° (WNW) 2,300 10.0 29.8°
Maximum altitude 12:35:58 74° 200° (SSW) 690 8.2 29.7°
Drops below altitude 10° 12:40:23 10° 115° (ESE) 2,020 10.0 29.6°
Sets 12:42:40 0° 113° (ESE) 2,960 10.7 29.5°
